#timestamp,LO_Frequency,Hit,StdDev 
1650074415.4,286046996.1,N
1650074435.2,286046993.6,Y
1650074455.0,286046994.3,P
1650074455.9,286046994.3,N
1650074475.8,286046994.1,N
1650074495.6,286046993.5,N
1650074515.5,286046994.3,N
1650074535.3,286046992.5,Y
1650074555.1,286046995.8,P
1650074575.9,286046997.6,P
1650074595.7,286046996.9,N
1650074615.5,286046998.8,N
1650074635.4,286046999.5,N
1650074655.2,286046996.6,N
1650074675.1,286046999.3,N
1650074676.0,286046999.3,N
1650074695.8,286046997.6,N
1650074715.6,286046995.4,Y
1650074735.5,286046999.4,P
1650074755.3,286046998.5,N
1650074775.2,286046999.6,N
1650074795.9,286046999.6,N
1650074815.7,286046999.0,N
1650074835.6,286047001.0,N
1650074855.4,286046999.3,N
1650074875.2,286046998.3,N
1650074895.1,286046999.2,N
1650074896.0,286046999.2,N
1650074915.8,286046998.4,N
1650074935.7,286046999.2,N
1650074955.5,286046999.1,N
1650074975.3,286046999.6,N
1650074995.2,286046997.8,Y
1650075015.9,286046997.0,P
1650075035.7,286046997.8,N
1650075055.6,286046997.6,N
1650075075.4,286046997.6,Y
1650075095.3,286046998.7,P
1650075115.1,286046999.6,N
1650075116.0,286046999.6,N
1650075135.8,286046999.6,N
1650075155.7,286046996.6,Y
1650075175.5,286047000.7,P
1650075195.3,286047002.3,N
1650075215.2,286047002.3,N
1650075235.0,286047002.7,N
1650075235.9,286047002.7,N
1650075255.8,286047000.1,N
1650075275.6,286047001.1,N
1650075295.4,286046996.5,N
1650075315.3,286046996.6,N
1650075335.1,286046999.6,N
1650075355.9,286046996.6,N
1650075375.7,286046995.5,N
1650075395.5,286046995.8,N
1650075415.4,286046998.0,N
1650075435.2,286046999.6,N
1650075455.0,286046995.0,N
1650075456.0,286046995.0,N
1650075475.8,286046995.8,N
1650075495.6,286046993.9,N
1650075515.5,286046993.8,N
1650075535.3,286046993.3,N
1650075555.2,286046995.7,N
1650075575.9,286046995.3,N
1650075595.7,286046998.0,N
1650075615.6,286046997.5,N
1650075635.4,286046997.1,N
1650075655.2,286046997.3,N
1650075675.1,286046997.8,N
1650075676.0,286046997.8,N
1650075695.8,286046994.9,N
1650075715.7,286046995.6,N
1650075735.5,286046995.7,N
1650075755.3,286046995.9,N
1650075775.2,286046993.9,N
1650075795.0,286046993.3,Y
1650075795.9,286046993.3,P
1650075815.7,286046997.1,N
1650075835.6,286046997.8,N
1650075855.4,286046997.6,N
1650075875.3,286046995.2,N
1650075895.1,286046995.0,Y
1650075915.8,286047000.3,P
1650075935.7,286047002.6,N
1650075955.5,286047002.0,N
1650075975.3,286046999.9,N
1650075995.2,286047001.7,N
1650076015.0,286047002.5,N
1650076015.9,286047002.5,N
1650076035.8,286047002.1,N
1650076055.6,286047000.3,N
1650076075.4,286047001.0,N
1650076095.3,286046998.1,N
1650076115.1,286047000.9,N
1650076135.9,286047000.0,N
1650076155.7,286046998.1,N
1650076175.5,286046998.5,N
1650076195.4,286046999.4,N
1650076215.2,286046999.4,N
1650076235.0,286046999.2,N
1650076235.9,286046999.2,N
1650076255.8,286046997.1,N
1650076275.6,286046997.0,N
1650076295.5,286046997.6,N
1650076315.3,286046997.6,N
1650076335.1,286046995.3,N
1650076355.9,286046999.6,N
1650076375.7,286047000.9,N
1650076395.5,286047000.6,N
1650076415.4,286046999.8,N
1650076435.2,286047002.1,N
1650076455.1,286047000.0,N
1650076456.0,286047000.0,N
1650076475.8,286047000.6,N
1650076495.6,286047000.8,N
1650076515.5,286046999.3,N
1650076535.3,286047001.2,N
1650076555.1,286046999.9,N
1650076575.9,286047000.9,N
1650076595.7,286047001.0,N
1650076615.6,286046999.9,N
1650076635.4,286046998.2,N
1650076655.2,286046998.3,N
1650076675.1,286046998.5,N
1650076676.0,286046998.5,N
1650076695.8,286046999.0,N
1650076715.7,286047000.7,N
1650076735.5,286047001.1,N
1650076755.3,286047002.1,N
1650076775.2,286047001.5,N
1650076795.0,286047002.3,N
1650076795.9,286047002.3,N
1650076815.7,286047002.5,N
1650076835.6,286047000.1,N
1650076855.4,286047001.9,N
1650076875.3,286047003.8,N
1650076895.1,286047005.6,Y
1650076915.8,286047004.8,P
1650076935.7,286047004.9,N
1650076955.5,286047007.3,P
1650076975.3,286047005.1,N
1650076995.2,286047003.4,N
1650077015.0,286047003.6,N
1650077015.9,286047003.6,N
1650077035.8,286047003.3,N
1650077055.6,286047005.3,Y
1650077075.5,286047001.0,P
1650077095.3,286047000.5,N
1650077115.2,286046998.3,N
1650077135.0,286047000.0,N
1650077135.9,286047000.0,N
1650077155.7,286047002.6,N
1650077175.6,286046998.4,N
1650077195.4,286046999.2,N
1650077215.3,286046997.8,N
1650077235.1,286046997.1,N
1650077236.0,286046997.1,N
1650077255.8,286046996.9,N
1650077275.7,286047000.4,N
1650077295.5,286047003.7,N
1650077315.3,286047001.8,N
1650077335.2,286047001.5,N
1650077355.0,286047002.5,N
1650077355.9,286047002.5,N
1650077375.8,286047002.3,N
1650077395.6,286046999.9,N
1650077415.4,286047000.7,N
1650077435.3,286046998.3,N
1650077455.1,286047001.0,N
1650077475.9,286047000.6,N
1650077495.7,286047000.4,N
1650077515.5,286047001.0,N
1650077535.4,286047001.7,N
1650077555.2,286047003.6,N
1650077575.0,286047001.3,N
1650077575.9,286047001.3,N
1650077595.8,286047001.6,N
1650077615.6,286047003.2,N
1650077635.5,286047005.6,N
1650077655.3,286047003.8,N
1650077675.1,286047003.6,N
1650077695.9,286047001.5,N
1650077715.7,286047003.0,N
1650077735.6,286047003.1,N
1650077755.4,286047004.1,N
1650077775.2,286047001.4,N
1650077795.1,286047002.6,N
1650077796.0,286047002.6,N
1650077815.8,286047000.4,N
1650077835.6,286047001.6,N
1650077855.5,286047005.9,Y
1650077875.3,286046999.9,P
1650077895.2,286046999.7,N
1650077915.9,286047000.2,N
1650077935.7,286047000.5,N
1650077955.6,286047002.1,N
1650077975.4,286047004.3,Y
1650077995.3,286047001.2,P
